TimeCDT,TemperatureF,Dew PointF,Humidity,Sea Level PressureIn,VisibilityMPH,Wind Direction,Wind SpeedMPH,Gust SpeedMPH,PrecipitationIn,Events,Conditions,WindDirDegrees,DateUTC
12:15 AM,28.8,23.9,82,30.33,10.0,Calm,Calm,-,N/A,,Clear,0,2013-04-03 05:15:00
12:35 AM,29.1,24.1,81,30.33,10.0,ESE,4.6,-,N/A,,Clear,120,2013-04-03 05:35:00
12:55 AM,28.4,23.7,83,30.33,10.0,East,4.6,-,N/A,,Clear,100,2013-04-03 05:55:00
1:15 AM,27.5,23.5,85,30.34,10.0,East,3.5,-,N/A,,Clear,90,2013-04-03 06:15:00
1:35 AM,27.5,23.5,85,30.34,10.0,Calm,Calm,-,N/A,,Scattered Clouds,0,2013-04-03 06:35:00
1:55 AM,28.2,23.5,83,30.34,10.0,Calm,Calm,-,N/A,,Clear,0,2013-04-03 06:55:00
2:15 AM,25.2,22.1,88,30.35,10.0,South,3.5,-,N/A,,Scattered Clouds,170,2013-04-03 07:15:00
2:35 AM,27.9,23.0,82,30.34,10.0,East,4.6,-,N/A,,Scattered Clouds,90,2013-04-03 07:35:00
2:55 AM,26.6,23.0,86,30.34,10.0,East,3.5,-,N/A,,Mostly Cloudy,80,2013-04-03 07:55:00
3:15 AM,27.3,23.4,85,30.34,10.0,East,3.5,-,N/A,,Mostly Cloudy,90,2013-04-03 08:15:00
3:35 AM,27.5,23.2,84,30.34,10.0,East,3.5,-,N/A,,Mostly Cloudy,100,2013-04-03 08:35:00
3:55 AM,27.7,23.0,83,30.36,10.0,SE,3.5,-,N/A,,Mostly Cloudy,130,2013-04-03 08:55:00
4:15 AM,28.4,24.6,86,30.36,10.0,Calm,Calm,-,N/A,,Overcast,0,2013-04-03 09:15:00
4:35 AM,28.0,24.1,85,30.36,10.0,Calm,Calm,-,N/A,,Overcast,0,2013-04-03 09:35:00
4:55 AM,27.3,23.9,87,30.36,10.0,Calm,Calm,-,N/A,,Mostly Cloudy,0,2013-04-03 09:55:00
5:15 AM,27.5,23.9,86,30.36,10.0,Calm,Calm,-,N/A,,Mostly Cloudy,0,2013-04-03 10:15:00
5:35 AM,27.0,23.9,88,30.36,10.0,Calm,Calm,-,N/A,,Overcast,0,2013-04-03 10:35:00
5:55 AM,26.6,23.0,86,30.38,10.0,ESE,3.5,-,N/A,,Scattered Clouds,120,2013-04-03 10:55:00
6:15 AM,26.6,22.8,86,30.38,10.0,East,4.6,-,N/A,,Clear,100,2013-04-03 11:15:00
6:35 AM,25.7,22.3,87,30.38,10.0,East,5.8,-,N/A,,Clear,90,2013-04-03 11:35:00
6:55 AM,25.3,21.9,87,30.38,10.0,East,6.9,-,N/A,,Clear,100,2013-04-03 11:55:00
7:15 AM,25.0,22.1,89,30.38,10.0,ESE,5.8,-,N/A,,Clear,110,2013-04-03 12:15:00
7:35 AM,25.5,22.8,89,30.39,7.0,SE,5.8,-,N/A,,Clear,130,2013-04-03 12:35:00
7:55 AM,27.1,23.5,86,30.39,10.0,ESE,5.8,-,N/A,,Clear,120,2013-04-03 12:55:00
8:15 AM,28.6,23.7,82,30.39,10.0,SE,5.8,-,N/A,,Clear,130,2013-04-03 13:15:00
8:35 AM,30.2,23.4,76,30.39,10.0,SE,6.9,-,N/A,,Clear,130,2013-04-03 13:35:00
8:55 AM,31.6,23.4,71,30.39,10.0,SSE,9.2,-,N/A,,Clear,150,2013-04-03 13:55:00
9:15 AM,32.0,22.8,69,30.38,10.0,SSE,10.4,-,N/A,,Clear,150,2013-04-03 14:15:00
9:35 AM,33.1,21.9,64,30.39,10.0,SE,11.5,-,N/A,,Clear,140,2013-04-03 14:35:00
9:55 AM,33.8,22.1,62,30.38,10.0,SSE,10.4,-,N/A,,Clear,150,2013-04-03 14:55:00
10:15 AM,35.1,21.0,57,30.38,10.0,SSE,12.7,-,N/A,,Clear,150,2013-04-03 15:15:00
10:35 AM,35.8,21.7,57,30.38,10.0,SSE,12.7,-,N/A,,Clear,150,2013-04-03 15:35:00
10:55 AM,36.7,21.6,54,30.38,10.0,SSE,13.8,-,N/A,,Clear,150,2013-04-03 15:55:00
11:15 AM,37.4,21.9,54,30.38,10.0,SSE,11.5,16.1,N/A,,Clear,150,2013-04-03 16:15:00
11:35 AM,39.0,21.7,50,30.38,10.0,SSE,9.2,-,N/A,,Clear,150,2013-04-03 16:35:00
11:55 AM,39.6,21.4,48,30.38,10.0,SE,13.8,-,N/A,,Clear,140,2013-04-03 16:55:00
12:15 PM,41.0,22.3,47,30.37,10.0,SSE,13.8,-,N/A,,Clear,160,2013-04-03 17:15:00
12:35 PM,41.9,22.8,47,30.37,10.0,SSE,13.8,-,N/A,,Clear,150,2013-04-03 17:35:00
12:55 PM,42.1,22.1,45,30.36,10.0,SSE,13.8,19.6,N/A,,Clear,150,2013-04-03 17:55:00
1:15 PM,43.0,22.8,45,30.35,10.0,SE,11.5,18.4,N/A,,Clear,140,2013-04-03 18:15:00
1:35 PM,44.2,22.6,42,30.33,10.0,SSE,13.8,17.3,N/A,,Clear,150,2013-04-03 18:35:00
1:55 PM,45.1,22.3,40,30.33,10.0,South,11.5,16.1,N/A,,Clear,180,2013-04-03 18:55:00
2:15 PM,45.7,22.3,40,30.33,10.0,SSE,10.4,16.1,N/A,,Clear,160,2013-04-03 19:15:00
2:35 PM,46.4,21.9,38,30.32,10.0,SSE,10.4,16.1,N/A,,Clear,150,2013-04-03 19:35:00
2:55 PM,47.8,22.1,36,30.31,10.0,South,9.2,-,N/A,,Clear,190,2013-04-03 19:55:00
3:15 PM,48.0,21.6,35,30.31,10.0,SSW,5.8,10.4,N/A,,Clear,200,2013-04-03 20:15:00
3:35 PM,49.5,23.4,36,30.30,10.0,South,11.5,-,N/A,,Clear,180,2013-04-03 20:35:00
3:55 PM,49.5,22.5,35,30.30,10.0,SSE,9.2,-,N/A,,Clear,160,2013-04-03 20:55:00
4:15 PM,48.7,22.3,35,30.28,10.0,South,8.1,-,N/A,,Clear,190,2013-04-03 21:15:00
4:35 PM,50.0,23.2,35,30.27,10.0,South,9.2,-,N/A,,Clear,170,2013-04-03 21:35:00
4:55 PM,51.4,23.4,33,30.26,10.0,South,10.4,-,N/A,,Clear,190,2013-04-03 21:55:00
5:15 PM,51.1,23.0,33,30.26,10.0,SSE,8.1,-,N/A,,Clear,160,2013-04-03 22:15:00
5:35 PM,51.3,23.0,33,30.25,10.0,SSE,8.1,-,N/A,,Clear,160,2013-04-03 22:35:00
5:55 PM,51.4,23.5,34,30.24,10.0,South,5.8,-,N/A,,Clear,170,2013-04-03 22:55:00
6:15 PM,50.7,23.9,35,30.24,10.0,South,9.2,-,N/A,,Clear,170,2013-04-03 23:15:00
6:35 PM,50.7,24.3,36,30.24,10.0,SSE,11.5,-,N/A,,Clear,160,2013-04-03 23:35:00
6:55 PM,49.8,24.1,37,30.24,10.0,SSE,10.4,-,N/A,,Clear,150,2013-04-03 23:55:00
7:15 PM,48.4,25.9,42,30.24,10.0,SSE,8.1,-,N/A,,Clear,150,2013-04-04 00:15:00
7:35 PM,46.0,27.0,47,30.24,10.0,SSE,9.2,-,N/A,,Clear,160,2013-04-04 00:35:00
7:55 PM,44.1,27.1,51,30.23,10.0,SSE,8.1,-,N/A,,Clear,160,2013-04-04 00:55:00
8:15 PM,43.0,26.6,52,30.23,10.0,South,6.9,-,N/A,,Clear,170,2013-04-04 01:15:00
8:35 PM,40.5,26.6,58,30.23,10.0,SSE,8.1,-,N/A,,Clear,160,2013-04-04 01:35:00
8:55 PM,38.5,26.8,63,30.23,10.0,SSE,8.1,-,N/A,,Clear,160,2013-04-04 01:55:00
9:15 PM,39.6,26.1,58,30.24,10.0,SSE,8.1,-,N/A,,Clear,160,2013-04-04 02:15:00
9:35 PM,38.8,25.5,59,30.24,10.0,SSE,9.2,-,N/A,,Clear,160,2013-04-04 02:35:00
9:55 PM,37.4,25.5,62,30.24,10.0,SSE,8.1,-,N/A,,Clear,160,2013-04-04 02:55:00
10:15 PM,37.4,24.8,60,30.24,10.0,SSE,8.1,-,N/A,,Clear,160,2013-04-04 03:15:00
10:35 PM,34.0,23.9,67,30.24,10.0,SSE,8.1,-,N/A,,Clear,160,2013-04-04 03:35:00
10:55 PM,32.2,23.9,72,30.24,10.0,South,8.1,-,N/A,,Clear,180,2013-04-04 03:55:00
11:15 PM,31.3,23.9,74,30.24,10.0,South,6.9,-,N/A,,Clear,180,2013-04-04 04:15:00
11:35 PM,30.4,23.9,77,30.24,10.0,South,6.9,-,N/A,,Clear,180,2013-04-04 04:35:00
11:55 PM,31.3,24.1,75,30.24,10.0,South,8.1,-,N/A,,Clear,190,2013-04-04 04:55:00